Regional Weather Roundup
Issued by NWS

Home | Current Version | Previous Version | Text Only | Print | Product List | Glossary On
Versions: 1 2 3 4 5 6 7 8 9 10 11 12 13 14 15 16 17 18 19 20 21 22 23 24 25 26 27 28 29 30 31 32 33 34 35 36 37 38 39 40 41 42 43 44 45 46 47 48 49 50
000
ASUS46 KPQR 251910
RWROR

OREGON REGIONAL WEATHER ROUNDUP
NATIONAL WEATHER SERVICE PORTLAND OR
1200 PM PDT TUE APR 25 2017

NOTE: "FAIR" INDICATES FEW OR NO CLOUDS BELOW 12,000 FEET WITH
NO SIGNIFICANT WEATHER AND/OR OBSTRUCTIONS TO VISIBILITY.

ORZ001>013-252000-
NORTHWEST OREGON


CITY           SKY/WX    TMP DP  RH WIND       PRES   REMARKS
ASTORIA        LGT RAIN  51  44  77 SE9       29.92S
NEWPORT        LGT RAIN  50  46  87 SE5       29.97R
PORTLAND       CLOUDY    53  43  68 S5        29.97F
VANCOUVER WA   CLOUDY    53  45  74 SE6       29.97S
SCAPPOOSE      LGT RAIN  51  45  79 E3        29.97S
HILLSBORO      LGT RAIN  52  44  74 S8G20     29.96S
AURORA         LGT RAIN  54  42  64 S7        29.97S
MCMINNVILLE    LGT RAIN  52  43  71 S8        29.97S
SALEM          CLOUDY    57  43  59 S9        29.95S
CORVALLIS      CLOUDY    52  46  82 S3        29.96S
EUGENE         LGT RAIN  53  47  79 S7        29.97R
$$

ORZ021-028-252000-
SOUTHWEST OREGON


CITY           SKY/WX    TMP DP  RH WIND       PRES   REMARKS
NORTH BEND     CLOUDY    52  50  93 S12       29.97R
BROOKINGS      LGT RAIN  49  48  97 S12G17    30.04S FOG
ROSEBURG       LGT RAIN  52  45  77 S7        29.98S
SEXTON SUMMIT  FOG       38  38 100 SE9       29.95F VSB<1/4 WCI  31
MEDFORD        LGT RAIN  52  44  74 E5        30.00F
$$

ORZ014>016-041-252000-
COLUMBIA GORGE


CITY           SKY/WX    TMP DP  RH WIND       PRES   REMARKS
TROUTDALE      CLOUDY    54  44  69 E7        29.97F
HOOD RIVER     CLOUDY    54  41  62 NW9       29.96F
THE DALLES     CLOUDY    57  40  52 VRB5      29.95F
$$

ORZ029>031-041-044-049-050-061>064-502-503-505>511-252000-
EASTERN OREGON


CITY           SKY/WX    TMP DP  RH WIND       PRES   REMARKS
REDMOND        CLOUDY    50  25  37 S10       29.92F
BEND           CLOUDY    48  27  43 SW16      29.93S
PRINEVILLE     CLOUDY    48  28  46 CALM      29.92F
KLAMATH FALLS  CLOUDY    44  34  67 S12       30.01S
LAKEVIEW       CLOUDY    43  28  56 S14G22    30.02F
HERMISTON        N/A     58  41  53 W13G21    29.93S
PENDLETON      PTSUNNY   54  40  59 W7        29.93F
JOHN DAY       CLOUDY    47  35  60 CALM      29.95R
MEACHAM        LGT RAIN  41  35  79 CALM      29.94R
LA GRANDE      CLOUDY    48  37  66 E5        29.93R
BAKER CITY     CLOUDY    51  34  52 N6        29.91F
BURNS          MOSUNNY   45  30  55 SW12      29.97S
ROME             N/A     52  29  41 SW10G21   29.95F
ONTARIO        MOSUNNY   56  35  45 SW9       29.94F
$$



USA.gov is the U.S. government's official web portal to all federal, state and local government web resources and services.